Regional Weather Roundup
Issued by NWS

Home | Current Version | Previous Version | Graphics & Text | Print | Product List | Glossary On
Versions: 1 2 3 4 5 6 7 8 9 10 11 12 13 14 15 16 17 18 19 20 21 22 23 24 25 26 27 28 29 30 31 32 33 34 35 36 37 38 39 40 41 42 43 44 45 46 47 48 49 50
206
ASUS43 KLOT 220308
RWRIL

ILLINOIS REGIONAL WEATHER ROUNDUP
NATIONAL WEATHER SERVICE CHICAGO/ROMEOVILLE IL
1000 PM CDT THU MAY 21 2015

NOTE: "FAIR" INDICATES FEW OR NO CLOUDS BELOW 12,000 FEET WITH NO
SIGNIFICANT WEATHER AND/OR OBSTRUCTIONS TO VISIBILITY.

* THESE STATIONS ARE NOT UNDER NWS QUALITY CONTROL. THEY ALSO MAY NOT
  REPORT WEATHER SUCH AS PRECIPITATION OR FOG.

ILZ001-002-007-009-015-016-024-220400-
NORTHWEST ILLINOIS

CITY           SKY/WX    TMP DP  RH WIND       PRES   REMARKS
MOLINE         PTCLDY    63  42  46 SW14      30.03S
STERLING*      PTCLDY    63  39  42 SW3       30.04R
SAVANNA*       CLEAR     64  43  46 SW8       30.02R
$$

ILZ003-004-008-010-011-017-018-220400-
NORTH CENTRAL ILLINOIS

CITY           SKY/WX    TMP DP  RH WIND       PRES   REMARKS
ROCKFORD       CLEAR     58  42  55 SW6       30.04R
FREEPORT*      CLEAR     56  43  59 SW9       30.03S
ROCHELLE*      CLEAR     55  43  65 SW8       30.04R
DE KALB*       CLEAR     56  39  54 SW7       30.04R
PERU*          PTCLDY    58  42  54 SW9       30.06S
$$

ILZ005-006-012>014-019>023-220400-
NORTHEAST ILLINOIS

CITY           SKY/WX    TMP DP  RH WIND       PRES   REMARKS
CHICAGO-OHARE  CLEAR     60  38  43 SW6       30.02R
CHICAGO-MIDWAY FAIR      62  38  40 SW7       30.03R
AURORA         CLEAR     56  39  53 S8        30.04R
LANSING*       CLEAR     49  38  66 CALM      30.04S
JOLIET*        CLEAR     54  42  63 SW3       30.04S
WAUKEGAN       CLEAR     57  41  55 SW7       29.99S
DUPAGE AIRPORT CLEAR     55  40  56 SW7       30.02S
KANKAKEE*      CLEAR     56  39  53 SW8       30.07S
WHEELING       CLEAR     60  38  43 S3        30.02S
MORRIS*        CLEAR     57  39  51 SW7       30.02F
ROMEOVILLE*    CLEAR     57  37  47 SW9       30.04S
NORTHERLY ISL    N/A     64  34  32 SW6         N/A
$$

LMZ740>746-220400-
SOUTHERN LAKE MICHIGAN

STATION/POSITION SKY/WX   TEMP    WIND        PRES    VSBY  WAVE
                          AIR SEA DIR/SP/G                  HT/PER
                          (F)     (DEG/KT/KT) (MB)    (MI)  (FT/S)
SOUTHERN BUOY              45 38  210/ 12/ 12 1015.8R         1/ 4
HARRISON CRIB              65     250/ 12/ 16   N/A
BURNHAM HARBOR             64     220/  4/  9   N/A
CALUMET HARBOR             63     210/  5/  6   N/A
BURNS HARBOR               63     220/  9/ 12 1017.3S
MICHIGAN CITY              61     180/ 10/ 11   N/A
MICHIGAN CITY 6N           55 51  200/  6/  8   N/A           0
ST. JOSEPH                 56 53  230/ 10/ 10   N/A           1/ 2
$$

ILZ025>027-034>036-040-047-049-050-058-095>099-220400-
WEST-CENTRAL ILLINOIS

CITY           SKY/WX    TMP DP  RH WIND       PRES   REMARKS
QUINCY         CLEAR     57  47  69 SW8       30.13S
GALESBURG*     CLEAR     56  46  67 S8        30.08S
MACOMB*        CLEAR     61  46  58 SW9       30.12R
JACKSONVILLE*  CLEAR     60  45  57 SW8       30.14R
PITTSFIELD*    CLEAR     59  46  63 SW7       30.16S
$$

ILZ028>032-037-038-041>044-048-051>054-059>061-220400-
CENTRAL ILLINOIS

CITY           SKY/WX    TMP DP  RH WIND       PRES   REMARKS
PONTIAC        CLEAR     61  42  50 SW10      30.09R
BLOOMINGTON    CLEAR     57  43  59 SW9       30.12R
DECATUR        CLEAR     53  41  63 SW9       30.14R
PEORIA         CLEAR     58  45  62 SW7       30.10R
LACON*         PTCLDY    58  43  57 SW5       30.07R
LINCOLN*       CLEAR     59  42  54 SW3       30.11R
SPRINGFIELD    CLEAR     59  42  53 SW6       30.14R
TAYLORVILLE    CLEAR     54  45  71 SW7       30.15S
$$

ILZ033-039-045-046-055>057-062-063-220400-
EAST-CENTRAL ILLINOIS

CITY           SKY/WX    TMP DP  RH WIND       PRES   REMARKS
CHAMPAIGN      CLEAR     54  40  59 SW9       30.13R
DANVILLE*      CLEAR     51  41  66 SW6       30.09R
RANTOUL*       CLEAR     58  39  48 SW8       30.11R
MATTOON        CLEAR     55  42  61 SW8       30.14R
PARIS*         CLEAR     53  40  61 SW8       30.15R
$$

ILZ079-100>102-220400-
SOUTHWEST ILLINOIS

CITY           SKY/WX    TMP DP  RH WIND       PRES   REMARKS
ALTON          CLEAR     54  48  82 SW6       30.18
BELLEVILLE     CLEAR     51  46  84 CALM      30.18S
CAHOKIA*       CLEAR     55  44  66 S5        30.18S
SPARTA*        CLEAR     54  44  67 CALM      30.21S
$$

ILZ064>066-069>071-074>076-080>082-084>086-088>090-092>094-220400-
SOUTH-CENTRAL ILLINOIS

CITY           SKY/WX    TMP DP  RH WIND       PRES   REMARKS
CARBONDALE     CLEAR     49  45  86 CALM      30.21R
CAIRO*         CLEAR     51  49  93 CALM      30.22S
EFFINGHAM*     CLEAR     52  41  66 S3        30.19R
MARION         CLEAR     48  46  93 CALM      30.21S
MT. VERNON     CLEAR     46  41  81 CALM      30.21R
CENTRALIA*     CLEAR     48  43  82 SW6       30.20R
SALEM*         CLEAR     52  45  75 S3        30.19R
METROPOLIS*    PTCLDY    50  50 100 CALM      30.21S
$$

ILZ067-068-072-073-078-083-087-091-220400-
SOUTHEAST ILLINOIS

CITY           SKY/WX    TMP DP  RH WIND       PRES   REMARKS
LAWRENCEVILLE  CLEAR     53  44  71 SW8       30.18R
FLORA*         CLEAR     51  44  78 SW6       30.20R
FAIRFIELD*     CLEAR     52  44  76 CALM      30.19R
HARRISBURG*    CLEAR     50  48  94 CALM      30.22S
ROBINSON*      CLEAR     51  44  77 SW7       30.17R
CARMI*         CLEAR     49  43  79 CALM      30.20R
$$

ABBREVIATIONS USED IN REMARKS
   TC - TEMPERATURE IN CELSIUS
  WCI - WIND CHILL INDEX
   HX - HEAT INDEX
  VSB - VISIBILITY
$$




USA.gov is the U.S. government's official web portal to all federal, state and local government web resources and services.